Home > Weather > New Orleans > Past weeks

Flag for USA Past Weather in New Orleans, Louisiana, USA — Yesterday and Last 2 Weeks

Now
87 °F

Sunny.


Feels Like: 95 °F
Forecast: 73 / 89 °F
Wind: 6 mph from Northeast

Location: Lakefront Airport

Current Time: Jun 30, 2016 at 12:43:08 PM

Latest Report: Jun 30, 2016 at 11:53 AM


Visibility: 10 mi

Pressure: 29.96 "Hg

Humidity: 63%

Dew Point: 73 °F

Location of New OrleansLocation

Past Weather in New Orleans — Graph

°F

New Orleans Temperature Yesterday

Maximum temperature yesterday: 90 °F (at 1:53 PM)
Minimum temperature yesterday: 78 °F (at 3:00 AM)
Average temperature yesterday: 82 °F

High & Low Weather Summary for the Past Weeks

 TemperatureHumidityPressure
High96 °F (Jun 26, 3:53 PM)91% (Jun 18, 9:53 AM)30.23 "Hg (Jun 18, 9:53 AM)
Low74 °F (Jun 18, 9:53 AM)29% (Jun 23, 2:53 PM)29.88 "Hg (Jun 17, 6:53 PM)
Average84 °F68%30.03 "Hg
* Reported Jun 15 10:53 AM — Jun 30 10:53 AM, New Orleans, Weather by CustomWeather, © 2016

Note: Actual official high and low records may vary slightly from our data, if they occured in-between our weather recording intervals... More about our weather records

Advertising

New Orleans Weather History for the Previous 24 Hours

Scroll right to see more
 ConditionsComfort  
Time TempWeatherWind HumidityBarometerVisibility
10:53 AM
Thu, Jun 30
85 °FSunny.9 mph70%29.96 "Hg10 mi
9:53 AM84 °FScattered clouds.13 mph72%29.96 "Hg10 mi
8:53 AM81 °FMostly cloudy.14 mph77%29.96 "Hg10 mi
7:53 AM82 °FPassing clouds.13 mph79%29.94 "Hg9 mi
6:53 AM81 °FPassing clouds.10 mph82%29.93 "Hg9 mi
5:53 AM81 °FPassing clouds.10 mph85%29.93 "Hg10 mi
4:53 AM81 °FClear.3 mph85%29.91 "Hg10 mi
3:53 AM81 °FClear.No wind79%29.91 "Hg10 mi
2:53 AM81 °FClear.No wind79%29.91 "Hg10 mi
1:53 AM81 °FClear.No wind82%29.91 "Hg10 mi
12:53 AM81 °FClear.6 mph85%29.92 "Hg10 mi
11:53 PM
Wed, Jun 29
80 °FClear.3 mph81%29.93 "Hg10 mi
10:53 PM80 °FClear.8 mph79%29.94 "Hg10 mi
9:53 PM81 °FClear.9 mph77%29.93 "Hg10 mi
8:53 PM81 °FSunny.10 mph77%29.92 "Hg10 mi
7:53 PM81 °FSunny.10 mph82%29.93 "Hg10 mi
6:53 PM81 °FOvercast.15 mph82%29.93 "Hg9 mi
5:53 PM81 °FOvercast.8 mph77%29.92 "Hg10 mi
5:00 PM81 °FThunderstorms. Mostly cloudy.23 mph79%29.94 "Hg2 mi
4:53 PM82 °FThundershowers. Mostly cloudy.25 mph77%29.92 "Hg9 mi
3:53 PM88 °FPartly sunny.6 mph55%29.91 "Hg10 mi
2:53 PM87 °FPassing clouds.10 mph57%29.92 "Hg10 mi
1:53 PM90 °FSunny.7 mph57%29.93 "Hg10 mi
12:53 PM88 °FSunny.8 mph57%29.94 "Hg10 mi
Weather by CustomWeather, © 2016

See weather overviewHow to use our weather pages